This demonstration page uses our WeatherBlox Daily Observations layout. Learn more.

Left ArrowRight Arrow

Hourly Observations for April 11, 2021

Temp ( °F °C ) Dew Point ( °F °C ) Humidity (%) Winds ( mph kmh ) Pressure ( in mb ) Visibility ( mi km ) Precip ( " mm )
12:53 am 00:53 Clear 60 15.6 33 0.6 36 36 N 5 7 29.92 1013 10 16 0.00 0.00
1:53 am 01:53 Clear 61 16.1 29 -1.7 30 30 N 13 20 29.91 1013 10 16 0.00 0.00
2:53 am 02:53 Clear 60 15.6 28 -2.2 30 30 N 12 19 29.91 1013 10 16 0.00 0.00
3:53 am 03:53 Clear 59 15 29 -1.7 32 32 N 7 11 29.91 1013 10 16 0.00 0.00
4:53 am 04:53 Clear 58 14.4 29 -1.7 33 33 N 9 15 29.91 1013 10 16 0.00 0.00
5:53 am 05:53 Clear 57 13.9 28 -2.2 33 33 N 10 17 29.91 1013 10 16 0.00 0.00
6:53 am 06:53 Sunny 56 13.3 29 -1.7 36 36 N 7 11 29.91 1013 10 16 0.00 0.00
7:53 am 07:53 Sunny 58 14.4 29 -1.7 33 33 N 15 24 29.92 1013 10 16 0.00 0.00
8:53 am 08:53 Sunny 60 15.6 29 -1.7 31 31 N 12 19 29.92 1013 10 16 0.00 0.00
9:53 am 09:53 Sunny 64 17.8 30 -1.1 28 28 N 14 22 29.91 1013 10 16 0.00 0.00
10:53 am 10:53 Sunny 68 20 29 -1.7 23 23 N 10 17 29.90 1013 10 16 0.00 0.00
11:53 am 11:53 Sunny 72 22.2 28 -2.2 19 19 N 12 19 29.89 1012 10 16 0.00 0.00
12:53 pm 12:53 Sunny 74 23.3 28 -2.2 18 18 N 14 22 29.86 1011 10 16 0.00 0.00
1:53 pm 13:53 Sunny 77 25 28 -2.2 16 16 N 15 24 29.84 1010 10 16 0.00 0.00
2:53 pm 14:53 Sunny 80 26.7 23 -5 12 12 N 16 26 29.80 1009 10 16 0.00 0.00
3:53 pm 15:53 Sunny 82 27.8 24 -4.4 12 12 NNE 17 28 29.78 1008 10 16 0.00 0.00
4:53 pm 16:53 Sunny 82 27.8 23 -5 11 11 N 16 26 29.77 1008 10 16 0.00 0.00
5:53 pm 17:53 Sunny 82 27.8 23 -5 11 11 NNE 15 24 29.75 1008 10 16 0.00 0.00
6:53 pm 18:53 Sunny 79 26.1 22 -5.6 12 12 NNE 14 22 29.76 1008 10 16 0.00 0.00
7:53 pm 19:53 Clear 74 23.3 22 -5.6 14 14 NNE 13 20 29.76 1008 10 16 0.00 0.00
8:53 pm 20:53 Clear 73 22.8 25 -3.9 17 17 NNW 7 11 29.78 1009 10 16 0.00 0.00
9:53 pm 21:53 Clear 70 21.1 25 -3.9 18 18 N 14 22 29.80 1009 10 16 0.00 0.00
10:53 pm 22:53 Clear 69 20.6 26 -3.3 20 20 N 12 19 29.81 1010 10 16 0.00 0.00
11:53 pm 23:53 Clear 69 20.6 23 -5 17 17 N 12 19 29.82 1010 10 16 0.00 0.00

Powered by AerisWeather